Wind_Speed
13 13 13 13 13 13 13 13 14 14 13 13 12 11 10 11 10 9 10 10 10 10 10 9 9 8 8 8 7 6 5 6 6 6 6 5 4 4 4 4 4 4 3 3 3 3 3 3 3
12 13 12 13 13 13 13 13 14 13 13 13 12 11 10 10 10 9 10 10 9 10 10 9 9 8 8 8 8 7 7 6 6 6 6 5 4 4 4 4 4 3 2 2 2 2 2 3 3
12 12 12 12 13 13 14 13 14 14 13 13 13 11 10 10 10 10 10 10 10 9 9 9 9 9 8 8 8 7 7 6 6 5 5 4 4 4 4 4 3 3 2 2 2 2 2 3 3
11 12 12 13 13 13 14 14 14 13 14 14 13 12 10 10 10 10 10 10 10 10 9 8 8 8 8 8 8 8 7 7 6 5 4 4 4 4 4 4 3 3 3 2 2 2 2 2 3
10 12 13 12 13 14 15 15 14 13 13 13 13 12 11 11 11 10 11 11 10 9 9 8 8 8 8 8 8 7 7 6 6 5 5 4 4 4 4 4 3 3 2 2 2 2 2 3 3
10 11 13 12 14 15 15 14 13 13 13 13 12 12 12 12 11 11 11 11 9 9 9 8 8 7 7 7 7 7 6 6 5 5 5 4 4 4 3 3 3 2 2 2 2 2 2 2 3
11 12 12 12 13 14 14 14 13 13 13 13 13 12 12 12 12 11 10 10 9 9 9 8 8 8 7 7 7 7 6 6 6 5 5 5 4 4 3 3 3 2 2 1 1 1 1 2 2
9 11 11 11 12 12 13 13 13 12 13 13 13 13 12 12 12 11 10 9 9 9 9 9 8 8 7 7 6 6 6 6 5 5 5 5 4 4 4 4 3 2 2 1 1 1 1 1 1
8 9 10 11 11 12 13 13 13 13 13 13 13 13 12 12 11 11 11 10 9 8 8 9 8 8 7 7 6 6 5 5 5 5 5 5 5 5 4 3 3 2 2 1 1 1 1 1 1
8 8 9 9 11 12 13 13 14 13 13 13 13 13 12 11 11 11 10 9 8 8 7 8 8 7 7 7 6 5 5 5 5 5 5 5 5 4 4 3 3 2 1 1 1 0 1 1 1
7 8 8 9 10 11 13 12 12 13 13 13 13 13 11 11 11 10 10 9 8 8 7 7 7 6 6 6 5 5 4 4 4 4 4 5 5 4 3 3 3 3 2 2 1 1 1 1 2
7 8 8 9 9 10 12 13 13 12 13 13 13 12 11 10 10 10 10 10 9 8 7 7 7 6 6 6 6 6 5 4 4 4 5 5 4 3 3 2 3 3 3 3 2 1 1 1 1
6 7 8 10 10 9 10 12 13 13 13 13 13 12 11 11 10 10 9 9 8 8 7 7 6 6 6 6 6 6 6 5 4 4 4 4 3 3 3 2 2 3 3 3 2 2 1 1 2
7 7 8 9 8 9 9 10 11 12 13 13 12 11 10 11 10 9 9 9 8 7 7 7 6 6 7 7 6 6 6 5 4 3 2 2 3 3 2 3 2 2 3 3 2 2 1 2 3
6 6 8 8 8 9 9 10 10 11 12 13 12 11 11 12 10 9 8 8 7 7 7 6 6 6 6 6 6 6 5 4 3 3 3 3 3 3 2 2 2 2 3 3 2 3 3 3 3
4 5 6 6 7 8 9 11 11 11 12 13 12 12 12 11 11 10 8 7 6 6 6 6 6 6 6 6 6 5 5 5 4 3 3 3 3 3 3 3 3 3 4 4 4 4 4 5 5
4 5 6 6 6 7 8 11 11 11 11 12 12 12 11 11 10 10 10 8 7 6 5 5 5 5 5 5 5 5 5 5 4 4 4 3 4 3 3 4 4 4 5 5 5 5 5 6 6
3 4 5 5 5 6 8 10 10 10 12 11 10 10 11 9 8 9 9 8 7 6 5 4 4 4 4 4 4 4 4 5 5 5 4 4 4 4 5 5 5 5 5 6 6 6 6 7 7
2 2 2 3 4 6 8 10 10 10 10 11 10 9 10 9 8 8 9 8 7 6 5 4 3 3 3 3 4 4 4 5 5 5 4 5 5 5 6 6 5 6 5 5 6 6 6 6 7
3 2 1 3 5 7 8 9 10 11 10 10 10 9 8 8 8 8 8 8 7 6 5 6 4 4 4 3 4 4 5 5 5 5 5 5 5 5 5 5 6 6 6 6 6 6 7 7 7
5 4 3 4 6 8 10 10 11 11 11 10 10 9 8 8 8 9 8 7 6 6 5 6 5 3 3 4 4 5 5 5 5 5 5 6 6 5 5 5 6 7 7 7 7 7 8 8 8
6 6 6 6 7 8 10 12 12 13 11 11 9 8 8 8 8 8 9 10 9 7 6 6 5 4 4 4 5 5 6 6 6 6 6 6 6 6 6 7 7 8 8 8 8 8 9 9 9
8 8 8 8 9 10 11 12 11 12 11 11 9 9 7 7 8 9 9 10 10 8 7 7 6 5 6 5 6 6 7 8 8 8 8 8 8 8 8 8 9 9 9 9 9 9 9 9 9
11 11 10 10 11 12 11 12 11 11 10 9 9 9 7 7 8 9 9 9 9 9 8 8 8 7 7 6 7 7 8 9 9 8 8 9 9 9 9 9 9 10 10 10 9 10 10 9 9
13 13 13 13 13 13 12 12 11 11 10 10 9 9 8 8 9 9 8 8 9 9 9 8 8 8 8 8 8 8 9 9 10 10 10 9 9 10 10 10 11 11 11 11 10 10 10 10 10
13 14 15 16 15 14 13 12 12 10 11 11 11 10 9 9 8 7 8 9 10 10 10 8 8 9 9 10 9 10 10 10 11 11 11 11 11 10 10 11 12 12 12 11 11 11 11 11 11
16 17 16 18 17 15 14 14 13 12 12 11 12 11 10 9 8 9 10 10 11 11 11 11 10 10 11 11 11 11 11 12 12 12 12 12 12 12 12 12 12 13 12 12 12 12 13 13 13
18 18 19 19 19 19 16 15 15 13 13 13 12 12 12 11 10 10 11 12 12 13 13 13 13 13 13 14 14 13 13 13 14 14 14 14 14 13 13 13 13 14 14 14 14 14 15 15 15
20 19 20 19 19 19 18 16 15 15 15 15 15 13 12 12 12 12 12 12 14 15 14 14 14 14 15 15 16 15 15 15 15 15 14 14 15 15 15 15 15 15 15 15 15 16 17 17 17
22 21 20 21 20 19 20 20 18 17 18 18 17 16 16 14 15 15 14 15 15 15 15 15 15 15 16 17 17 17 17 17 17 17 16 15 15 16 17 17 17 17 16 16 16 18 18 19 19
Wind_Direction
80 77 66 66 64 62 64 59 51 51 50 50 50 50 50 49 49 51 53 58 64 68 70 70 73 85 89 85 85 89 109 124 125 125 134 129 123 128 127 128 132 129 126 127 123 119 129 131 132
76 73 65 61 57 57 59 55 50 51 51 51 49 48 48 49 50 51 54 61 65 68 72 74 75 84 85 86 86 87 96 112 112 119 129 130 119 110 108 122 131 136 135 127 119 122 118 123 122
75 71 64 55 54 56 55 52 49 47 49 49 46 48 49 52 50 48 53 58 65 68 72 76 78 79 79 80 87 87 96 99 97 104 113 115 107 101 111 116 117 123 130 129 118 109 112 113 112
75 71 62 52 55 59 56 52 47 43 47 48 46 45 47 51 49 47 50 57 65 70 72 78 80 79 80 83 83 86 91 94 93 94 99 102 103 100 101 108 105 110 116 112 101 95 97 106 110
70 62 56 51 55 57 55 50 44 38 42 44 44 42 45 48 50 48 50 56 64 69 70 76 81 81 81 82 82 86 91 88 85 87 94 101 104 102 103 105 98 106 109 109 105 101 94 87 86
60 58 54 51 51 51 53 50 43 38 41 40 42 42 43 47 51 48 49 56 64 67 70 74 80 80 80 82 82 81 86 86 89 93 95 100 104 107 108 106 104 117 128 123 115 104 100 93 90
59 55 48 52 51 47 47 47 40 36 40 39 41 41 43 49 53 51 50 57 65 70 69 70 75 80 80 80 81 81 82 85 89 90 89 95 101 101 101 99 101 99 112 132 128 116 108 94 97
55 51 48 50 50 45 42 45 42 36 37 38 39 40 42 47 52 53 51 57 64 68 70 71 76 77 75 77 77 80 80 81 86 86 83 86 87 92 96 100 99 100 111 132 155 123 107 121 117
55 52 48 48 45 41 44 43 40 40 35 34 36 38 41 45 53 57 55 56 62 66 67 68 74 72 73 76 77 78 75 72 79 83 81 83 89 93 97 96 98 92 92 85 118 140 151 147 134
51 56 59 59 48 39 41 41 37 39 37 34 34 36 38 41 48 54 52 51 54 59 61 64 63 69 71 69 71 72 67 63 70 80 79 79 87 81 80 76 79 72 75 56 45 219 208 178 172
54 59 62 60 48 38 38 39 34 34 33 31 34 36 39 40 43 50 54 52 54 56 56 58 63 68 68 65 65 66 62 63 73 80 82 75 72 70 65 61 60 62 60 51 23 290 240 228 226
69 64 61 50 42 38 37 36 31 34 30 29 33 35 33 34 41 45 47 48 55 59 60 66 70 74 71 67 68 66 67 73 78 76 77 68 62 57 48 56 47 36 36 33 10 325 281 267 252
82 67 59 52 45 40 33 34 32 34 30 27 31 30 32 33 36 39 42 44 49 57 58 65 68 68 65 64 66 67 67 68 70 71 69 62 55 48 52 47 25 15 9 13 14 339 302 259 254
90 72 64 62 55 46 34 31 28 27 27 25 26 27 33 34 33 33 37 40 41 51 57 62 65 64 64 66 68 67 66 64 64 65 58 49 44 42 46 34 9 354 356 355 345 315 280 273 264
83 72 63 57 51 46 36 28 26 23 25 22 22 26 29 32 32 32 35 42 44 56 59 63 65 65 66 66 64 66 57 50 48 47 45 43 38 27 28 15 3 346 348 346 332 315 292 284 282
84 68 58 52 45 38 28 16 13 18 20 20 21 22 22 27 31 31 32 37 46 53 55 59 63 65 66 64 57 56 47 42 42 42 38 39 27 7 2 358 346 333 325 323 314 303 294 286 283
94 67 55 47 33 22 7 2 360 1 8 12 17 17 14 16 25 30 29 34 49 53 57 58 58 56 59 56 52 50 43 38 31 29 28 25 12 5 358 353 335 327 324 318 311 304 297 289 284
118 83 59 34 22 7 355 353 354 353 359 1 8 8 8 9 17 30 30 35 40 45 45 49 53 47 46 46 46 41 31 21 15 13 10 9 5 358 353 346 338 331 325 319 312 305 302 295 288
181 131 52 7 336 336 342 341 342 341 343 352 358 359 2 11 16 23 24 28 31 28 26 28 47 42 38 40 33 22 11 358 355 355 355 351 348 342 340 338 332 330 328 324 321 314 307 300 293
215 200 262 291 297 307 312 318 327 332 336 342 345 352 357 8 12 16 16 16 16 18 18 20 32 37 28 21 13 4 357 353 349 341 343 345 341 339 334 328 325 324 318 314 313 310 305 301 297
225 225 247 272 277 286 296 302 311 322 326 333 339 344 355 1 7 6 4 3 4 7 10 9 5 15 4 350 349 348 341 338 332 331 333 337 334 329 329 322 326 326 318 313 313 311 305 300 295
246 249 259 261 258 275 287 294 302 313 316 322 326 335 341 349 357 357 357 357 356 0 358 355 346 334 328 326 331 335 332 329 323 317 316 316 316 315 314 313 314 318 314 311 309 305 299 295 292
244 249 257 257 263 270 276 287 296 303 307 313 317 322 330 339 345 343 341 342 345 343 338 338 335 323 316 311 312 318 321 320 321 319 315 312 310 309 310 311 309 306 307 309 308 304 301 295 292
244 247 247 258 264 264 271 278 286 290 297 304 307 308 321 330 328 331 335 334 335 332 331 327 323 320 320 311 313 315 315 314 314 315 314 311 309 308 308 309 309 308 305 306 306 306 305 302 298
248 252 253 256 262 265 266 275 285 284 286 295 299 303 314 314 316 320 320 322 322 323 325 325 325 324 321 315 310 310 310 309 308 310 311 310 310 310 308 309 309 307 305 300 300 303 301 300 297
249 253 258 266 271 267 268 275 289 286 286 290 295 299 304 310 312 312 311 313 319 321 321 319 313 313 312 310 309 304 303 303 302 303 304 304 305 308 308 307 309 307 302 298 295 296 293 295 296
252 249 256 266 270 263 266 271 282 284 285 287 289 288 290 300 304 306 311 314 315 316 315 310 306 304 304 302 300 301 299 300 297 298 299 299 300 300 301 304 307 306 303 297 289 290 289 289 290
248 251 253 259 264 263 263 270 281 289 289 285 280 282 278 284 298 302 306 309 308 310 309 306 302 301 299 299 300 303 302 298 295 295 294 294 295 296 298 299 300 301 300 296 292 286 287 288 285
241 245 251 258 260 261 263 270 279 287 289 288 283 285 290 290 296 301 303 306 304 304 302 301 298 297 298 298 298 298 298 296 293 293 290 289 290 294 294 296 296 297 297 300 296 294 290 290 289
242 247 252 253 255 258 264 270 275 280 284 286 285 285 291 294 292 295 298 299 301 299 296 296 295 295 295 294 294 294 294 294 292 293 290 290 291 294 294 293 295 296 295 296 297 296 293 290 293
Height
5908 5907 5907 5907 5907 5906 5905 5904 5903 5903 5902 5902 5901 5900 5900 5900 5899 5900 5897 5895 5894 5894 5894 5893 5893 5893 5893 5893 5892 5892 5892 5893 5894 5895 5896 5896 5896 5897 5897 5897 5897 5897 5897 5897 5897 5897 5897 5897 5897
5909 5909 5909 5909 5907 5906 5906 5905 5905 5905 5904 5903 5902 5902 5901 5901 5899 5899 5897 5896 5895 5895 5895 5895 5894 5894 5894 5894 5893 5893 5893 5894 5895 5896 5897 5897 5897 5897 5898 5898 5898 5898 5898 5898 5898 5898 5897 5897 5897
5910 5911 5912 5910 5908 5908 5908 5907 5906 5906 5905 5904 5904 5904 5903 5902 5901 5899 5898 5897 5897 5897 5896 5896 5896 5896 5896 5896 5896 5895 5896 5896 5897 5897 5898 5898 5898 5898 5898 5899 5899 5899 5898 5898 5898 5898 5898 5897 5897
5912 5913 5913 5912 5910 5910 5909 5908 5908 5907 5907 5906 5905 5905 5904 5903 5902 5901 5899 5898 5898 5898 5898 5898 5898 5898 5898 5898 5897 5897 5898 5898 5898 5898 5898 5898 5899 5899 5899 5899 5899 5899 5899 5899 5899 5898 5898 5898 5898
5915 5914 5913 5912 5912 5911 5910 5910 5909 5909 5908 5907 5907 5906 5905 5904 5902 5901 5900 5900 5899 5899 5899 5899 5899 5899 5899 5899 5899 5899 5899 5899 5899 5899 5899 5899 5899 5899 5899 5899 5899 5899 5899 5899 5899 5899 5898 5898 5898
5916 5915 5914 5914 5913 5912 5912 5911 5911 5911 5910 5909 5908 5907 5906 5905 5903 5902 5901 5901 5901 5901 5901 5900 5900 5900 5900 5900 5900 5900 5900 5900 5900 5900 5900 5900 5900 5900 5899 5899 5899 5899 5899 5899 5899 5899 5899 5899 5898
5919 5917 5916 5916 5915 5914 5914 5913 5913 5912 5911 5910 5909 5908 5907 5906 5905 5903 5902 5902 5902 5902 5902 5901 5901 5901 5901 5901 5901 5901 5901 5901 5901 5900 5900 5900 5900 5900 5900 5900 5900 5899 5899 5899 5899 5899 5899 5899 5898
5919 5919 5918 5917 5916 5916 5916 5915 5914 5913 5912 5912 5910 5909 5908 5907 5906 5904 5903 5903 5903 5902 5902 5902 5902 5902 5902 5902 5902 5902 5901 5901 5901 5901 5901 5901 5901 5900 5900 5900 5900 5899 5899 5899 5899 5899 5899 5899 5898
5920 5921 5919 5919 5919 5918 5917 5917 5916 5915 5914 5913 5911 5910 5909 5908 5907 5906 5905 5904 5904 5904 5903 5903 5903 5902 5903 5902 5902 5902 5902 5902 5902 5902 5902 5902 5901 5901 5901 5900 5900 5899 5899 5899 5898 5899 5899 5899 5898
5921 5921 5921 5921 5920 5920 5919 5919 5918 5916 5915 5914 5913 5911 5909 5908 5908 5907 5906 5905 5905 5904 5904 5904 5904 5903 5903 5903 5903 5903 5903 5903 5902 5902 5902 5902 5902 5902 5901 5901 5900 5899 5899 5899 5898 5898 5899 5898 5898
5922 5922 5922 5922 5921 5921 5921 5920 5919 5918 5917 5915 5914 5912 5911 5910 5909 5908 5908 5907 5906 5905 5905 5904 5904 5904 5903 5903 5903 5903 5903 5903 5903 5902 5902 5902 5902 5902 5901 5901 5900 5900 5899 5899 5898 5898 5898 5898 5898
5924 5924 5923 5923 5922 5922 5922 5922 5921 5919 5919 5917 5915 5914 5912 5911 5910 5909 5908 5907 5907 5906 5906 5905 5905 5905 5905 5904 5904 5903 5903 5903 5903 5903 5903 5903 5902 5902 5901 5901 5900 5900 5899 5899 5898 5897 5897 5897 5898
5925 5924 5924 5924 5924 5923 5923 5922 5922 5920 5919 5917 5916 5915 5914 5912 5911 5909 5908 5908 5907 5907 5906 5905 5905 5905 5905 5904 5904 5904 5904 5903 5903 5903 5903 5903 5903 5902 5901 5901 5900 5900 5899 5898 5898 5897 5897 5897 5897
5926 5925 5925 5925 5925 5924 5924 5924 5923 5921 5920 5919 5917 5916 5915 5913 5912 5911 5909 5908 5907 5907 5906 5906 5905 5905 5905 5905 5904 5904 5904 5904 5904 5903 5903 5903 5903 5902 5902 5901 5900 5899 5899 5898 5897 5897 5897 5897 5896
5927 5927 5927 5926 5926 5925 5925 5925 5924 5922 5920 5919 5918 5917 5915 5914 5913 5912 5910 5909 5908 5907 5907 5906 5906 5906 5905 5905 5905 5904 5904 5904 5903 5903 5903 5903 5902 5902 5901 5901 5900 5899 5898 5898 5897 5896 5896 5896 5896
5927 5927 5927 5927 5926 5926 5927 5925 5924 5922 5921 5920 5919 5917 5916 5915 5913 5912 5910 5909 5908 5907 5907 5907 5907 5906 5906 5906 5905 5905 5904 5904 5903 5903 5903 5902 5902 5901 5900 5900 5899 5899 5898 5897 5896 5896 5895 5895 5894
5927 5927 5927 5927 5926 5926 5926 5925 5924 5923 5922 5921 5920 5918 5916 5915 5913 5912 5910 5909 5908 5908 5907 5907 5906 5906 5906 5906 5905 5905 5904 5904 5903 5903 5902 5902 5901 5900 5899 5899 5898 5897 5897 5896 5895 5894 5894 5893 5893
5926 5926 5926 5927 5927 5926 5925 5925 5924 5923 5921 5920 5919 5918 5916 5914 5913 5911 5910 5909 5908 5907 5907 5907 5906 5906 5906 5905 5905 5904 5904 5903 5903 5902 5901 5901 5900 5899 5898 5897 5897 5896 5895 5894 5893 5893 5892 5891 5891
5925 5926 5926 5927 5926 5926 5925 5924 5924 5923 5921 5920 5919 5917 5916 5914 5913 5912 5911 5910 5908 5907 5907 5906 5906 5906 5905 5905 5904 5904 5904 5903 5902 5901 5900 5900 5899 5898 5897 5896 5895 5895 5894 5893 5892 5891 5890 5890 5889
5924 5924 5925 5926 5925 5925 5924 5923 5923 5922 5921 5920 5918 5917 5916 5914 5913 5912 5911 5910 5908 5908 5907 5906 5905 5905 5905 5904 5904 5903 5903 5902 5901 5901 5900 5899 5898 5897 5896 5895 5894 5893 5892 5891 5890 5890 5889 5888 5887
5922 5923 5924 5924 5924 5923 5923 5922 5922 5921 5919 5919 5917 5916 5915 5914 5913 5912 5911 5910 5908 5907 5906 5906 5905 5904 5904 5904 5903 5902 5902 5901 5901 5900 5899 5898 5897 5895 5894 5893 5892 5892 5891 5890 5889 5888 5887 5886 5885
5921 5921 5922 5922 5922 5921 5922 5920 5920 5919 5918 5917 5916 5915 5915 5913 5912 5911 5910 5909 5908 5907 5906 5905 5904 5903 5903 5903 5902 5901 5900 5900 5899 5898 5897 5896 5895 5894 5892 5892 5891 5890 5889 5888 5887 5886 5885 5884 5883
5918 5919 5920 5920 5920 5920 5919 5918 5918 5917 5916 5915 5915 5914 5913 5912 5911 5910 5910 5909 5908 5906 5905 5904 5903 5902 5902 5901 5901 5900 5899 5898 5897 5896 5895 5894 5893 5892 5890 5889 5889 5888 5886 5886 5884 5883 5882 5881 5880
5916 5917 5917 5917 5917 5917 5917 5915 5915 5914 5914 5914 5913 5912 5911 5910 5909 5909 5908 5908 5907 5905 5904 5902 5902 5901 5900 5899 5899 5898 5897 5896 5895 5894 5893 5892 5891 5889 5888 5887 5886 5885 5884 5883 5882 5880 5879 5878 5877
5913 5914 5914 5914 5914 5914 5914 5913 5913 5912 5912 5911 5910 5909 5909 5907 5907 5907 5906 5906 5905 5904 5902 5900 5900 5899 5898 5897 5896 5895 5895 5894 5893 5892 5891 5889 5888 5887 5886 5884 5883 5882 5881 5880 5879 5878 5876 5875 5874
5910 5911 5911 5911 5911 5910 5910 5910 5911 5909 5909 5908 5908 5907 5906 5906 5905 5905 5904 5904 5903 5902 5900 5898 5898 5897 5896 5895 5894 5893 5892 5891 5890 5889 5888 5887 5885 5884 5883 5881 5880 5879 5878 5876 5875 5874 5873 5872 5871
5905 5906 5907 5907 5906 5906 5906 5907 5907 5906 5905 5904 5904 5904 5903 5902 5902 5902 5902 5901 5900 5899 5898 5897 5896 5895 5894 5892 5891 5890 5889 5889 5888 5886 5885 5883 5882 5881 5880 5878 5877 5875 5874 5873 5871 5870 5869 5868 5867
5902 5902 5903 5903 5902 5902 5902 5903 5903 5903 5902 5901 5901 5900 5899 5899 5899 5898 5898 5897 5896 5896 5895 5894 5893 5891 5890 5889 5888 5887 5886 5884 5883 5882 5881 5880 5879 5877 5876 5875 5873 5872 5870 5869 5867 5866 5865 5864 5863
5897 5897 5898 5898 5898 5898 5898 5901 5899 5899 5899 5898 5897 5896 5896 5895 5895 5895 5894 5893 5893 5892 5891 5890 5889 5888 5886 5885 5884 5883 5882 5880 5878 5877 5876 5875 5874 5873 5872 5870 5869 5867 5866 5864 5863 5861 5861 5859 5858
5890 5892 5893 5894 5894 5894 5893 5897 5894 5894 5894 5894 5893 5892 5892 5891 5891 5890 5890 5889 5889 5888 5886 5886 5885 5884 5882 5881 5879 5878 5877 5875 5874 5872 5872 5870 5869 5868 5867 5866 5864 5863 5861 5860 5858 5857 5855 5854 5853